[[{"header":{"parameterUnit":"m.s-1","parameterCategory":1,"la1":30.2991,"la2":30.254,"lo1":-89.0895,"lo2":-89.0444,"dy":0.0017,"dx":0.0017,"nx":28,"ny":28,"refTime":"2024-05-04T03:00:00:Z","depth":0,"parameterNumber":2,"parameterNumberName":"U-component_of_WINDS"},"data":[0,0,0,0,0,0,0,0,0,0,0,0,0,0,0,0,0,0,0,0,0,0,0,0,0,0,0,0,0,0,0,0,0,0,0,0,0,0,0,0,0,0,0,0,0,0,0,0,0,0,0,0,0,0,0,0,0,0,-0.6118,-0.6118,0,-0.6095,-0.6095,-0.6095,-0.6064,-0.6063,-0.6062,-0.6062,-0.6037,-0.6037,-0.6037,0,0,0,0,0,0,0,0,0,0,0,0,0,-0.6135,-0.6135,-0.6118,-0.6118,-0.6118,-0.6095,-0.6095,-0.6095,-0.6064,-0.6063,-0.6062,-0.6062,-0.6037,-0.6037,-0.6037,0,0,0,0,0,0,0,0,0,0,0,0,0,-0.6122,-0.6135,-0.6118,-0.61,-0.6098,-0.6095,-0.6095,-0.6095,-0.6064,-0.6063,-0.6062,-0.6061,-0.6037,-0.6037,-0.6036,-0.605,0,0,-0.6036,-0.6036,0,0,0,0,0,0,0,0,-0.6123,-0.6121,-0.6103,-0.6101,-0.6099,-0.6082,-0.6092,-0.608,-0.6064,-0.6077,-0.6062,-0.6061,-0.6052,-0.6051,-0.6048,-0.6049,-0.6048,-0.6036,-0.6035,-0.6035,-0.6035,0,0,0,0,0,0,0,-0.6124,-0.6122,-0.6109,-0.6102,-0.61,-0.6092,-0.609,-0.6089,-0.6069,-0.6075,-0.6073,-0.6071,-0.6051,-0.6048,-0.6047,-0.6048,-0.6036,-0.6035,-0.6035,-0.6035,-0.6061,-0.6062,0,0,0,0,0,0,-0.6127,-0.6123,-0.611,-0.6109,-0.6109,-0.6093,-0.609,-0.6088,-0.6069,-0.6065,-0.6072,-0.607,-0.6049,-0.6048,-0.6046,-0.6062,-0.6035,-0.6035,-0.6035,-0.606,-0.6061,-0.6062,0,0,0,0,0,0,-0.6128,-0.6127,-0.6111,-0.6115,-0.6113,-0.6093,-0.6092,-0.6088,-0.6085,-0.6066,-0.6062,-0.6073,-0.6049,-0.6047,-0.605,-0.6061,-0.6035,-0.6035,-0.6059,-0.606,-0.6061,-0.6094,0,0,0,0,0,0,-0.6128,-0.6127,-0.6132,-0.6116,-0.6113,-0.6115,-0.6092,-0.6088,-0.6085,-0.6082,-0.6066,-0.6063,-0.6048,-0.6051,-0.605,-0.606,-0.6034,-0.6058,-0.6059,-0.6061,-0.6092,-0.6096,-0.61,0,0,0,0,0,-0.6129,-0.6141,-0.6132,-0.6131,-0.6118,-0.6116,-0.6114,-0.6097,-0.6086,-0.6091,-0.6079,-0.6063,-0.606,-0.6051,-0.605,-0.606,-0.6057,-0.6059,-0.6061,-0.609,-0.6095,-0.6099,0,0,0,0,0,0,-0.6158,-0.6139,-0.6128,-0.6136,-0.6128,-0.6111,-0.6116,-0.6103,-0.6098,-0.6095,-0.6074,-0.6071,-0.6077,-0.6069,-0.606,-0.6074,-0.6056,-0.6058,-0.6079,-0.6083,-0.6087,-0.6089,-0.6034,0,0,0,0,0,-0.6166,-0.6166,-0.6148,-0.6156,-0.6153,-0.6136,-0.6134,-0.6122,-0.6113,-0.6109,-0.6097,-0.6088,-0.6086,-0.6084,-0.608,-0.609,-0.6087,-0.6097,-0.6101,-0.6104,-0.6106,-0.6112,-0.6117,-0.6068,-0.6068,-0.6068,0,0,-0.6181,-0.617,-0.6171,-0.6162,-0.6155,-0.6155,-0.6133,-0.6134,-0.6134,-0.6109,-0.6112,-0.6103,-0.6092,-0.6099,-0.6102,-0.6093,-0.6119,-0.6107,-0.611,-0.611,-0.6115,-0.6119,-0.6123,-0.6069,-0.6069,-0.6069,0,0,-0.6209,-0.62,-0.6207,-0.62,-0.6189,-0.6178,-0.618,-0.6165,-0.6158,-0.6161,-0.6142,-0.6142,-0.6138,-0.6131,-0.6127,-0.6155,-0.614,-0.6154,-0.6175,-0.6181,-0.6185,-0.6188,-0.6198,-0.6202,-0.6156,-0.6156,-0.6156,0,-0.6229,-0.6229,-0.6211,-0.6214,-0.6211,-0.6189,-0.6196,-0.619,-0.6179,-0.6177,-0.6167,-0.6162,-0.6153,-0.6159,-0.6166,-0.6163,-0.6165,-0.6155,-0.6186,-0.6189,-0.6192,-0.6201,-0.6205,-0.6158,-0.6157,-0.6157,-0.6157,0,-0.6254,-0.6255,-0.6261,-0.6252,-0.6249,-0.6254,-0.6237,-0.6237,-0.6226,-0.6216,-0.6219,-0.6208,-0.6202,-0.6203,-0.6191,-0.6208,-0.6203,-0.619,-0.6172,-0.6198,-0.6207,-0.6211,-0.616,-0.616,-0.6159,-0.6159,0,0,-0.6299,-0.6281,-0.6283,-0.6279,-0.6267,-0.6267,-0.6271,-0.6266,-0.6267,-0.626,-0.6263,-0.6261,-0.6249,-0.6245,-0.6232,-0.6238,-0.6261,-0.6224,-0.6223,-0.6232,-0.628,-0.629,-0.6295,-0.6252,-0.6253,-0.6253,-0.6281,0,-0.6324,-0.633,-0.6316,-0.6326,-0.6326,-0.6306,-0.631,-0.6303,-0.6294,-0.6293,-0.6283,-0.6282,-0.6266,-0.6264,-0.6268,-0.6257,-0.6271,-0.6255,-0.6255,-0.6255,-0.6258,-0.6299,-0.6309,-0.6336,-0.6284,-0.6285,-0.6285,0,-0.6355,-0.6351,-0.6361,-0.6349,-0.6349,-0.6352,-0.6348,-0.6347,-0.6339,-0.6332,-0.6328,-0.6314,-0.6318,-0.6301,-0.6306,-0.6296,-0.6295,-0.629,-0.6291,-0.629,-0.6272,-0.63,-0.6344,-0.6349,-0.629,-0.629,-0.629,0,-0.6387,-0.6384,-0.639,-0.6387,-0.6373,-0.6377,-0.6371,-0.6362,-0.6361,-0.6356,-0.6355,-0.6351,-0.6349,-0.6347,-0.6332,-0.6321,-0.634,-0.6321,-0.6334,-0.6335,-0.6339,-0.6339,-0.6384,-0.6338,-0.6338,-0.6338,-0.6338,0,-0.6417,-0.6425,-0.6405,-0.6408,-0.6416,-0.64,-0.6408,-0.64,-0.6393,-0.6395,-0.6377,-0.638,-0.636,-0.6361,-0.635,-0.6356,-0.6355,-0.635,-0.6347,-0.6352,-0.6352,-0.6351,-0.6349,-0.6339,-0.6338,-0.6338,-0.6338,0,-0.6455,-0.6442,-0.6447,-0.6434,-0.6431,-0.6438,-0.6426,-0.643,-0.642,-0.6423,-0.6423,-0.6408,-0.6407,-0.6393,-0.6389,-0.6382,-0.6393,-0.6386,-0.6396,-0.6394,-0.6408,-0.6407,-0.6454,-0.646,-0.641,-0.641,-0.6411,0,-0.6475,-0.6481,-0.6469,-0.6469,-0.6464,-0.6465,-0.6464,-0.6448,-0.6448,-0.644,-0.6444,-0.6443,-0.644,-0.6441,-0.643,-0.6427,-0.6421,-0.6437,-0.642,-0.6425,-0.6422,-0.6422,-0.6423,-0.6441,-0.6442,-0.6442,-0.6443,0,-0.6513,-0.6507,-0.6506,-0.6503,-0.6502,-0.6499,-0.6495,-0.6496,-0.6479,-0.648,-0.648,-0.6478,-0.6475,-0.6474,-0.647,-0.6464,-0.6451,-0.6448,-0.6451,-0.6456,-0.6462,-0.646,-0.6407,-0.6447,-0.6447,-0.6446,-0.6446,-0.6446,-0.6543,-0.6548,-0.654,-0.654,-0.6535,-0.6532,-0.6535,-0.6526,-0.6526,-0.6523,-0.6513,-0.6515,-0.6508,-0.6501,-0.6497,-0.6498,-0.649,-0.6494,-0.6495,-0.6496,-0.65,-0.6462,-0.6497,-0.6497,-0.6497,-0.6497,-0.6497,0,-0.6581,-0.6576,-0.6576,-0.6571,-0.6571,-0.6559,-0.6554,-0.6555,-0.6557,-0.6552,-0.655,-0.6551,-0.655,-0.654,-0.6538,-0.6541,-0.6535,-0.6541,-0.6541,-0.654,-0.6507,-0.6505,-0.6546,-0.6546,-0.6546,-0.6546,-0.6546,-0.6546,-0.6601,-0.6608,-0.6601,-0.6605,-0.66,-0.6602,-0.66,-0.6597,-0.6593,-0.6595,-0.6595,-0.6588,-0.6581,-0.6578,-0.6577,-0.6574,-0.6575,-0.6583,-0.6578,-0.6547,-0.6542,-0.6538,-0.6536,-0.6583,-0.6583,-0.6611,-0.6612,-0.6612]},{"header":{"parameterUnit":"m.s-1","parameterCategory":1,"la1":30.2991,"la2":30.254,"lo1":-89.0895,"lo2":-89.0444,"dy":0.0017,"dx":0.0017,"nx":28,"ny":28,"refTime":"2024-05-04T03:00:00:Z","depth":0,"parameterNumber":3,"parameterNumberName":"V-component_of_WINDS"},"data":[0,0,0,0,0,0,0,0,0,0,0,0,0,0,0,0,0,0,0,0,0,0,0,0,0,0,0,0,0,0,0,0,0,0,0,0,0,0,0,0,0,0,0,0,0,0,0,0,0,0,0,0,0,0,0,0,0,0,3.144,3.144,0,3.1428,3.1428,3.1428,3.1449,3.145,3.1451,3.1451,3.1434,3.1433,3.1432,0,0,0,0,0,0,0,0,0,0,0,0,0,3.148,3.1479,3.144,3.144,3.144,3.1428,3.1428,3.1428,3.1449,3.145,3.1451,3.1452,3.1435,3.1433,3.1432,0,0,0,0,0,0,0,0,0,0,0,0,0,3.1464,3.1478,3.144,3.1449,3.145,3.1428,3.1428,3.1428,3.1449,3.145,3.1451,3.1452,3.1435,3.1433,3.1432,3.1399,0,0,3.1426,3.1426,0,0,0,0,0,0,0,0,3.1465,3.1463,3.1448,3.1449,3.1449,3.1441,3.1435,3.1418,3.1449,3.1449,3.1451,3.1453,3.1435,3.1434,3.1429,3.1398,3.1397,3.1426,3.1425,3.1425,3.1424,0,0,0,0,0,0,0,3.1466,3.1463,3.1435,3.1448,3.1449,3.1453,3.1452,3.1432,3.1436,3.1449,3.1451,3.1449,3.1436,3.143,3.1429,3.1397,3.1426,3.1425,3.1424,3.1423,3.1341,3.1339,0,0,0,0,0,0,3.1467,3.1464,3.1436,3.1435,3.146,3.1451,3.145,3.1443,3.1436,3.1437,3.1448,3.145,3.1433,3.1431,3.1428,3.1391,3.1425,3.1423,3.1422,3.1342,3.134,3.1339,0,0,0,0,0,0,3.1467,3.1464,3.1436,3.145,3.1447,3.145,3.1441,3.1442,3.1436,3.1436,3.1436,3.1442,3.1434,3.143,3.1407,3.139,3.1422,3.1421,3.1343,3.1341,3.134,3.1314,0,0,0,0,0,0,3.1468,3.1464,3.1452,3.145,3.1446,3.1416,3.144,3.1441,3.1434,3.1436,3.143,3.143,3.1434,3.1409,3.1405,3.1388,3.1419,3.1345,3.1342,3.134,3.1317,3.1312,3.1308,0,0,0,0,0,3.147,3.1444,3.1451,3.1448,3.1432,3.1415,3.1413,3.1419,3.1433,3.142,3.142,3.143,3.1393,3.1407,3.1402,3.1385,3.1346,3.1343,3.134,3.1319,3.1313,3.1308,0,0,0,0,0,0,3.1443,3.1444,3.1452,3.1425,3.142,3.1419,3.1403,3.1413,3.1402,3.1405,3.1412,3.141,3.1385,3.1382,3.1398,3.1353,3.1371,3.1368,3.1356,3.1351,3.1346,3.1348,3.1418,0,0,0,0,0,3.1434,3.1421,3.1423,3.1399,3.1396,3.14,3.1393,3.1399,3.1393,3.139,3.1388,3.1381,3.1368,3.1359,3.1347,3.1316,3.1316,3.1302,3.1298,3.1294,3.1291,3.1276,3.127,3.133,3.133,3.133,0,0,3.1415,3.1414,3.1405,3.1393,3.139,3.1376,3.1398,3.1382,3.1372,3.1387,3.1366,3.1364,3.1357,3.133,3.1318,3.1327,3.1274,3.1291,3.1288,3.1287,3.1273,3.1267,3.1262,3.1329,3.1329,3.1329,0,0,3.1374,3.1372,3.1353,3.1349,3.1345,3.1348,3.1343,3.1341,3.1341,3.132,3.1332,3.1319,3.1296,3.1291,3.1285,3.1244,3.1253,3.124,3.1217,3.1202,3.1197,3.1193,3.1179,3.1174,3.1236,3.1236,3.1236,0,3.135,3.1331,3.1341,3.1325,3.132,3.1335,3.1316,3.1311,3.1302,3.1298,3.1308,3.1281,3.1277,3.125,3.124,3.1235,3.123,3.124,3.1197,3.1193,3.119,3.1176,3.1171,3.1235,3.1235,3.1235,3.1235,0,3.1304,3.129,3.1275,3.1268,3.1261,3.1243,3.1249,3.124,3.1247,3.1249,3.1228,3.1224,3.1212,3.1206,3.1211,3.118,3.1186,3.1196,3.1215,3.1182,3.117,3.1165,3.1233,3.1233,3.1234,3.1234,0,0,3.1244,3.1244,3.1239,3.1236,3.1233,3.1223,3.1206,3.1196,3.1189,3.1182,3.1168,3.1149,3.116,3.1153,3.1158,3.1145,3.1115,3.1158,3.1158,3.1151,3.1081,3.1073,3.1067,3.1121,3.112,3.1119,3.1082,0,3.1204,3.1177,3.1185,3.1157,3.1145,3.1161,3.1146,3.1142,3.1144,3.1133,3.1134,3.1121,3.1136,3.1133,3.1121,3.1121,3.1101,3.1124,3.1108,3.1107,3.111,3.1061,3.1052,3.1017,3.1077,3.1076,3.1076,0,3.1153,3.1148,3.1119,3.1119,3.1115,3.1101,3.1094,3.1084,3.108,3.1082,3.1076,3.1084,3.1067,3.1086,3.1062,3.1078,3.1072,3.1071,3.107,3.1069,3.1089,3.1059,3.1006,3.1001,3.1068,3.1069,3.1069,0,3.1114,3.1099,3.108,3.1077,3.1077,3.1068,3.1067,3.1064,3.1058,3.1051,3.1047,3.1038,3.1032,3.1025,3.103,3.1043,3.1006,3.1025,3.1007,3.1007,3.0999,3.0999,3.0945,3.0994,3.0994,3.0994,3.0994,0,3.1069,3.1051,3.1063,3.1051,3.1031,3.1041,3.1021,3.1022,3.102,3.1008,3.102,3.1009,3.1017,3.1006,3.101,3.0991,3.0988,3.0989,3.0991,3.0988,3.0988,3.0985,3.0987,3.0993,3.0993,3.0993,3.0994,0,3.1022,3.1029,3.101,3.1012,3.1012,3.0998,3.0999,3.0988,3.0991,3.0977,3.0974,3.0978,3.0967,3.0972,3.0958,3.0961,3.0937,3.0941,3.0939,3.094,3.0923,3.0924,3.0864,3.0857,3.091,3.091,3.0909,0,3.0993,3.098,3.0981,3.0975,3.0974,3.0964,3.0959,3.0968,3.0962,3.0958,3.0947,3.0937,3.0929,3.091,3.0911,3.0902,3.0906,3.0885,3.0904,3.0903,3.0907,3.0908,3.0907,3.0881,3.0881,3.088,3.088,0,3.0941,3.0945,3.0938,3.0932,3.0926,3.0921,3.0917,3.0911,3.092,3.0913,3.0902,3.0896,3.0884,3.0874,3.0866,3.0864,3.0873,3.0874,3.087,3.0868,3.0867,3.0868,3.0929,3.0875,3.0876,3.0876,3.0876,3.0877,3.0902,3.0892,3.0892,3.0883,3.0882,3.0879,3.0869,3.0872,3.0864,3.0856,3.0862,3.0849,3.0846,3.0837,3.0834,3.0824,3.0832,3.0825,3.0824,3.0822,3.082,3.0869,3.0822,3.0823,3.0823,3.0823,3.0823,0,3.0852,3.0853,3.0845,3.0841,3.0834,3.0845,3.0842,3.0835,3.0825,3.0822,3.0815,3.0803,3.0794,3.0795,3.0787,3.0778,3.0783,3.0776,3.0777,3.0776,3.0813,3.0818,3.0773,3.0773,3.0773,3.0773,3.0773,3.0773,3.0824,3.0808,3.0813,3.0796,3.0797,3.0786,3.0784,3.0781,3.0779,3.0766,3.0758,3.076,3.0759,3.0751,3.0743,3.0744,3.074,3.0732,3.0734,3.0769,3.0774,3.0778,3.0783,3.0731,3.0731,3.0698,3.0698,3.0698]}]]